This demonstration page uses our WeatherBlox Daily Observations layout. Learn more.

Left ArrowRight Arrow

44.8408, -93.29828

Hourly Observations for May 20, 2021

Temp ( °F °C ) Dew Point ( °F °C ) Humidity (%) Winds ( mph kmh ) Pressure ( in mb ) Visibility ( mi km ) Precip ( " mm )
12:53 am 00:53 Cloudy 68 20 66 18.9 93 93 SSE 8 13 29.98 1015 10 16 0.00 0.00
1:53 am 01:53 Cloudy 68 20 66 18.9 93 93 SSE 8 13 29.98 1015 10 16 0.00 0.00
2:53 am 02:53 Cloudy with Light Rain 67 19.4 65 18.3 93 93 SSE 10 17 29.98 1015 10 16 0.00 0.00
3:17 am 03:17 Cloudy 67 19.4 65 18.3 93 93 SSE 10 17 29.97 1015 10 16 0.00 0.00
3:40 am 03:40 Cloudy with Light Rain 67 19.4 65 18.3 93 93 SSE 10 17 29.97 1015 10 16 0.00 0.00
3:53 am 03:53 Cloudy 66 18.9 64 17.8 93 93 SSE 12 19 29.98 1015 10 16 0.00 0.00
4:35 am 04:35 Cloudy 66 18.9 64 17.8 93 93 S 9 15 29.98 1015 10 16 0.00 0.00
4:48 am 04:48 Cloudy 66 19 64 18 94 94 SSE 8 13 29.98 1015 10 16 0.00 0.00
4:53 am 04:53 Cloudy 66 18.9 64 17.8 93 93 S 7 11 29.99 1016 10 16 0.00 0.00
5:53 am 05:53 Cloudy 65 18.3 64 17.8 97 97 SSE 8 13 29.99 1016 10 16 0.00 0.00
6:53 am 06:53 Mostly Cloudy 66 18.9 64 17.8 93 93 SSE 7 11 30.00 1016 10 16 0.00 0.00
7:05 am 07:05 Mostly Cloudy 66 18.9 64 17.8 93 93 SSE 8 13 29.98 1015 10 16 0.00 0.00
7:38 am 07:38 Cloudy 67 19.4 64 17.8 91 91 SSE 10 17 29.99 1016 10 16 0.00 0.00
7:53 am 07:53 Cloudy with Rain 66 18.9 64 17.8 93 93 SSE 10 17 30.00 1016 7 11 0.02 0.51
8:33 am 08:33 Cloudy with Light Rain 66 18.9 65 18.3 96 96 SSE 7 11 29.99 1016 6 10 0.04 1.02
8:44 am 08:44 Cloudy with Light Rain 66 18.9 65 18.3 96 96 SSE 8 13 29.99 1016 7 11 0.04 1.02
8:53 am 08:53 Cloudy with Light Rain 66 18.9 65 18.3 96 96 SSE 10 17 30.00 1016 7 11 0.04 1.02
9:53 am 09:53 Cloudy with Light Rain 67 19.4 66 18.9 97 97 SSE 8 13 29.99 1016 4 6 0.02 0.51
10:11 am 10:11 Cloudy with Light Rain 67 19.4 66 18.9 97 97 SSE 9 15 29.98 1015 6 10 0.00 0.00
10:53 am 10:53 Cloudy with Light Rain 67 19.4 65 18.3 93 93 SSE 9 15 30.00 1016 8 13 0.00 0.00
11:33 am 11:33 Cloudy 67 19.4 65 18.3 93 93 SSE 13 20 29.98 1015 8 13 0.01 0.25
11:53 am 11:53 Cloudy 67 19.4 65 18.3 93 93 SSE 14 22 30.00 1016 10 16 0.01 0.25
12:06 pm 12:06 Cloudy 67 19.4 65 18.3 93 93 S 10 17 29.98 1015 9 14 0.00 0.00
12:37 pm 12:37 Cloudy 69 20.6 66 18.9 90 90 S 13 20 29.99 1015 10 16 0.00 0.00
12:53 pm 12:53 Cloudy 69 20.6 66 18.9 90 90 S 13 20 29.99 1016 10 16 0.00 0.00
1:53 pm 13:53 Cloudy 71 21.7 65 18.3 81 81 S 13 20 29.99 1016 10 16 0.00 0.00
2:03 pm 14:03 Cloudy 72 22.2 65 18.3 79 79 S 8 13 29.97 1015 10 16 0.00 0.00
2:53 pm 14:53 Cloudy 74 23.3 65 18.3 74 74 S 13 20 29.99 1016 10 16 0.00 0.00
3:00 pm 15:00 Cloudy 74 23.3 65 18.3 74 74 S 14 22 29.97 1015 10 16 0.00 0.00
3:29 pm 15:29 Mostly Cloudy 74 23.3 65 18.3 74 74 S 12 19 29.97 1015 10 16 0.00 0.00
3:49 pm 15:49 Cloudy 73 23 64 18 74 74 S 10 17 29.97 1015 10 16 0.00 0.00
3:53 pm 15:53 Cloudy 73 22.8 65 18.3 76 76 S 10 17 29.98 1015 10 16 0.00 0.00
4:53 pm 16:53 Cloudy 72 22.2 66 18.9 82 82 S 12 19 29.99 1016 10 16 0.00 0.00
5:53 pm 17:53 Cloudy 72 22.2 66 18.9 82 82 S 14 22 30.00 1016 10 16 0.00 0.00
6:53 pm 18:53 Cloudy 72 22.2 66 18.9 82 82 S 13 20 30.01 1016 10 16 0.00 0.00
7:53 pm 19:53 Cloudy 72 22.2 66 18.9 82 82 S 13 20 30.01 1016 10 16 0.00 0.00
8:53 pm 20:53 Cloudy with Light Rain 71 21.7 66 18.9 84 84 S 14 22 30.02 1017 10 16 0.00 0.00
9:53 pm 21:53 Cloudy 70 21.1 66 18.9 87 87 SSE 9 15 30.04 1017 10 16 0.00 0.00
10:53 pm 22:53 Cloudy 69 20.6 66 18.9 90 90 SSE 10 17 30.04 1017 10 16 0.00 0.00
11:11 pm 23:11 Cloudy with Light Rain 69 20.6 66 18.9 90 90 SSE 13 20 30.03 1017 10 16 0.00 0.00
11:53 pm 23:53 Cloudy with Light Rain 69 20.6 66 18.9 90 90 S 12 19 30.04 1017 10 16 0.00 0.00

Powered by AerisWeather